Zurück zum Katalog

TITAN 3C TRANSTAGE R/B

AktivHEO
NORAD 50000·ROCKET BODY·🇺🇸 United States

Gestartet Apr 8, 1970 von Cape Canaveral Space Force Station

Loading…

Nächste Überflüge (nächste 24 Stunden)

TLE

AktuellSource: Space-Track

Epoche: Sep 14, 2026, 08:10 UTC

1 50000U 70027C   26257.34082965 -.00000262  00000-0  00000-0 0  9991
2 50000  46.3006  68.8072 6843645 203.0435   0.4015  0.44284875 91552

Verfolge TITAN 3C TRANSTAGE R/B in Echtzeit mit AllMySat

Download on the App Store